Time,TemperatureF,DewpointF,PressureIn,WindDirection,WindDirectionDegrees,WindSpeedMPH,WindSpeedGustMPH,Humidity,HourlyPrecipIn,Conditions,Clouds,dailyrainin,SoftwareType,DateUTC
2013-01-27 00:03:00,39.8,35.3,29.78,North,0,0.0,0.0,84,0.00,,,0.00,WUHU216HW,2013-01-27 07:03:00,
2013-01-27 00:08:00,39.8,35.3,29.78,North,0,0.0,0.0,84,0.00,,,0.00,WUHU216HW,2013-01-27 07:08:00,
2013-01-27 00:13:00,39.8,35.3,29.78,North,0,0.0,0.0,84,0.00,,,0.00,WUHU216HW,2013-01-27 07:13:00,
2013-01-27 00:18:00,39.6,34.8,29.77,North,0,0.0,0.0,83,0.00,,,0.00,WUHU216HW,2013-01-27 07:18:00,
2013-01-27 00:23:00,39.6,34.8,29.77,North,0,0.0,0.0,83,0.00,,,0.00,WUHU216HW,2013-01-27 07:23:00,
2013-01-27 00:28:00,39.6,34.8,29.77,North,0,0.0,0.0,83,0.00,,,0.00,WUHU216HW,2013-01-27 07:28:00,
2013-01-27 00:33:00,39.6,35.2,29.77,North,0,0.0,0.0,84,0.00,,,0.00,WUHU216HW,2013-01-27 07:33:00,
2013-01-27 00:38:00,39.6,35.2,29.77,North,0,0.0,0.0,84,0.00,,,0.00,WUHU216HW,2013-01-27 07:38:00,
2013-01-27 00:43:00,39.6,35.2,29.77,North,0,0.0,0.0,84,0.00,,,0.00,WUHU216HW,2013-01-27 07:43:00,
2013-01-27 00:48:00,39.6,35.7,29.77,North,0,0.0,0.0,86,0.00,,,0.00,WUHU216HW,2013-01-27 07:48:00,
2013-01-27 00:53:00,39.8,36.2,29.77,North,0,0.0,0.0,87,0.00,,,0.00,WUHU216HW,2013-01-27 07:53:00,
2013-01-27 00:58:00,39.8,36.2,29.77,North,0,0.0,0.0,87,0.00,,,0.00,WUHU216HW,2013-01-27 07:58:00,
2013-01-27 01:03:00,39.8,36.2,29.77,North,0,0.0,0.0,87,0.00,,,0.00,WUHU216HW,2013-01-27 08:03:00,
2013-01-27 01:08:00,39.6,36.0,29.77,North,0,0.0,0.0,87,0.00,,,0.00,WUHU216HW,2013-01-27 08:08:00,
2013-01-27 01:13:00,39.6,35.7,29.77,North,0,0.0,0.0,86,0.00,,,0.00,WUHU216HW,2013-01-27 08:13:00,
2013-01-27 01:18:00,39.4,35.6,29.77,North,0,0.0,0.0,86,0.00,,,0.00,WUHU216HW,2013-01-27 08:18:00,
2013-01-27 01:23:00,39.2,35.4,29.76,North,0,0.0,0.0,86,0.00,,,0.00,WUHU216HW,2013-01-27 08:23:00,
2013-01-27 01:28:00,39.2,35.1,29.76,North,0,0.0,0.0,85,0.00,,,0.00,WUHU216HW,2013-01-27 08:28:00,
2013-01-27 01:33:00,39.1,34.9,29.76,North,0,0.0,0.0,85,0.00,,,0.00,WUHU216HW,2013-01-27 08:33:00,
2013-01-27 01:38:00,38.9,34.7,29.76,North,0,0.0,0.0,85,0.00,,,0.00,WUHU216HW,2013-01-27 08:38:00,
2013-01-27 01:43:00,38.5,34.4,29.76,North,0,0.0,0.0,85,0.00,,,0.00,WUHU216HW,2013-01-27 08:43:00,
2013-01-27 01:48:00,38.3,34.2,29.76,North,0,0.0,0.0,85,0.00,,,0.00,WUHU216HW,2013-01-27 08:48:00,
2013-01-27 01:53:00,38.2,34.0,29.76,North,0,0.0,0.0,85,0.00,,,0.00,WUHU216HW,2013-01-27 08:53:00,
2013-01-27 01:58:00,38.0,33.8,29.76,North,0,0.0,0.0,85,0.00,,,0.00,WUHU216HW,2013-01-27 08:58:00,
2013-01-27 02:03:00,38.0,34.4,29.76,North,0,0.0,0.0,87,0.00,,,0.00,WUHU216HW,2013-01-27 09:03:00,
2013-01-27 02:08:00,38.0,34.4,29.76,North,0,0.0,0.0,87,0.00,,,0.00,WUHU216HW,2013-01-27 09:08:00,
2013-01-27 02:13:00,37.8,34.2,29.75,North,0,0.0,0.0,87,0.00,,,0.00,WUHU216HW,2013-01-27 09:13:00,
2013-01-27 02:18:00,37.6,34.0,29.75,North,0,0.0,0.0,87,0.00,,,0.00,WUHU216HW,2013-01-27 09:18:00,
2013-01-27 02:23:00,37.4,34.2,29.76,North,0,0.0,0.0,88,0.00,,,0.00,WUHU216HW,2013-01-27 09:23:00,
2013-01-27 02:28:00,37.1,33.5,29.76,North,0,0.0,0.0,87,0.00,,,0.00,WUHU216HW,2013-01-27 09:28:00,
2013-01-27 02:33:00,36.9,33.3,29.76,North,0,0.0,0.0,87,0.00,,,0.00,WUHU216HW,2013-01-27 09:33:00,
2013-01-27 02:38:00,36.4,32.8,29.76,North,0,0.0,0.0,87,0.00,,,0.00,WUHU216HW,2013-01-27 09:38:00,
2013-01-27 02:43:00,36.2,32.6,29.76,North,0,0.0,0.0,87,0.00,,,0.00,WUHU216HW,2013-01-27 09:43:00,
2013-01-27 02:48:00,35.8,32.2,29.76,North,0,0.0,0.0,87,0.00,,,0.00,WUHU216HW,2013-01-27 09:48:00,
2013-01-27 02:53:00,35.6,31.8,29.76,North,0,0.0,0.0,86,0.00,,,0.00,WUHU216HW,2013-01-27 09:53:00,
2013-01-27 02:58:00,35.5,31.6,29.76,North,0,0.0,0.0,86,0.00,,,0.00,WUHU216HW,2013-01-27 09:58:00,
2013-01-27 03:03:00,35.1,31.2,29.76,North,0,0.0,0.0,86,0.00,,,0.00,WUHU216HW,2013-01-27 10:03:00,
2013-01-27 03:08:00,34.9,31.1,29.76,North,0,0.0,0.0,86,0.00,,,0.00,WUHU216HW,2013-01-27 10:08:00,
2013-01-27 03:13:00,34.7,30.9,29.76,North,0,0.0,0.0,86,0.00,,,0.00,WUHU216HW,2013-01-27 10:13:00,
2013-01-27 03:18:00,34.6,30.7,29.76,North,0,0.0,0.0,86,0.00,,,0.00,WUHU216HW,2013-01-27 10:18:00,
2013-01-27 03:23:00,34.4,30.5,29.75,North,0,0.0,0.0,86,0.00,,,0.00,WUHU216HW,2013-01-27 10:23:00,
2013-01-27 03:28:00,34.2,30.3,29.75,North,0,0.0,0.0,86,0.00,,,0.00,WUHU216HW,2013-01-27 10:28:00,
2013-01-27 03:33:00,34.0,30.2,29.75,North,0,0.0,0.0,86,0.00,,,0.00,WUHU216HW,2013-01-27 10:33:00,
2013-01-27 03:38:00,34.0,30.2,29.75,North,0,0.0,0.0,86,0.00,,,0.00,WUHU216HW,2013-01-27 10:38:00,
2013-01-27 03:43:00,34.0,30.4,29.75,North,0,0.0,0.0,87,0.00,,,0.00,WUHU216HW,2013-01-27 10:43:00,
2013-01-27 03:48:00,33.8,30.2,29.75,North,0,0.0,0.0,87,0.00,,,0.00,WUHU216HW,2013-01-27 10:48:00,
2013-01-27 03:53:00,33.8,30.2,29.75,North,0,0.0,0.0,87,0.00,,,0.00,WUHU216HW,2013-01-27 10:53:00,
2013-01-27 03:58:00,33.5,30.0,29.75,North,0,0.0,0.0,87,0.00,,,0.00,WUHU216HW,2013-01-27 10:58:00,
2013-01-27 04:03:00,33.5,30.0,29.75,North,0,0.0,0.0,87,0.00,,,0.00,WUHU216HW,2013-01-27 11:03:00,
2013-01-27 04:08:00,33.3,29.8,29.75,North,0,0.0,0.0,87,0.00,,,0.00,WUHU216HW,2013-01-27 11:08:00,
2013-01-27 04:13:00,33.1,29.6,29.74,North,0,0.0,0.0,87,0.00,,,0.00,WUHU216HW,2013-01-27 11:13:00,
2013-01-27 04:18:00,32.9,29.4,29.75,North,0,0.0,0.0,87,0.00,,,0.00,WUHU216HW,2013-01-27 11:18:00,
2013-01-27 04:23:00,32.8,29.4,29.74,North,0,0.0,0.0,87,0.00,,,0.00,WUHU216HW,2013-01-27 11:23:00,
2013-01-27 04:28:00,32.4,29.0,29.75,North,0,0.0,0.0,87,0.00,,,0.00,WUHU216HW,2013-01-27 11:28:00,
2013-01-27 04:33:00,32.0,28.6,29.75,North,0,0.0,0.0,87,0.00,,,0.00,WUHU216HW,2013-01-27 11:33:00,
2013-01-27 04:38:00,31.9,28.4,29.75,North,0,0.0,0.0,87,0.00,,,0.00,WUHU216HW,2013-01-27 11:38:00,
2013-01-27 04:43:00,31.5,28.1,29.75,North,0,0.0,0.0,87,0.00,,,0.00,WUHU216HW,2013-01-27 11:43:00,
2013-01-27 04:48:00,31.3,27.9,29.75,North,0,0.0,0.0,87,0.00,,,0.00,WUHU216HW,2013-01-27 11:48:00,
2013-01-27 04:53:00,31.1,27.7,29.75,North,0,0.0,0.0,87,0.00,,,0.00,WUHU216HW,2013-01-27 11:53:00,
2013-01-27 04:58:00,31.0,27.5,29.75,North,0,0.0,0.0,87,0.00,,,0.00,WUHU216HW,2013-01-27 11:58:00,
2013-01-27 05:03:00,30.6,27.2,29.75,North,0,0.0,0.0,87,0.00,,,0.00,WUHU216HW,2013-01-27 12:03:00,
2013-01-27 05:08:00,30.6,27.6,29.75,North,0,0.0,0.0,88,0.00,,,0.00,WUHU216HW,2013-01-27 12:08:00,
2013-01-27 05:13:00,30.6,27.6,29.75,North,0,0.0,0.0,88,0.00,,,0.00,WUHU216HW,2013-01-27 12:13:00,
2013-01-27 05:18:00,30.4,27.4,29.75,North,0,0.0,0.0,88,0.00,,,0.00,WUHU216HW,2013-01-27 12:18:00,
2013-01-27 05:23:00,30.4,27.4,29.75,North,0,0.0,0.0,88,0.00,,,0.00,WUHU216HW,2013-01-27 12:23:00,
2013-01-27 05:28:00,30.1,26.6,29.75,North,0,0.0,0.0,87,0.00,,,0.00,WUHU216HW,2013-01-27 12:28:00,
2013-01-27 05:33:00,29.9,26.5,29.75,North,0,0.0,0.0,87,0.00,,,0.00,WUHU216HW,2013-01-27 12:33:00,
2013-01-27 05:38:00,29.7,26.3,29.75,North,0,0.0,0.0,87,0.00,,,0.00,WUHU216HW,2013-01-27 12:38:00,
2013-01-27 05:43:00,29.5,26.1,29.75,North,0,0.0,0.0,87,0.00,,,0.00,WUHU216HW,2013-01-27 12:43:00,
2013-01-27 05:48:00,29.3,25.9,29.75,North,0,0.0,0.0,87,0.00,,,0.00,WUHU216HW,2013-01-27 12:48:00,
2013-01-27 05:53:00,29.2,25.7,29.75,North,0,0.0,0.0,87,0.00,,,0.00,WUHU216HW,2013-01-27 12:53:00,
2013-01-27 05:58:00,29.0,25.6,29.76,North,0,0.0,0.0,87,0.00,,,0.00,WUHU216HW,2013-01-27 12:58:00,
2013-01-27 06:03:00,28.8,25.4,29.76,North,0,0.0,0.0,87,0.00,,,0.00,WUHU216HW,2013-01-27 13:03:00,
2013-01-27 06:08:00,28.6,25.2,29.76,North,0,0.0,0.0,87,0.00,,,0.00,WUHU216HW,2013-01-27 13:08:00,
2013-01-27 06:13:00,28.6,25.2,29.76,North,0,0.0,0.0,87,0.00,,,0.00,WUHU216HW,2013-01-27 13:13:00,
2013-01-27 06:18:00,28.4,25.0,29.76,North,0,0.0,0.0,87,0.00,,,0.00,WUHU216HW,2013-01-27 13:18:00,
2013-01-27 06:23:00,28.4,25.0,29.77,North,0,0.0,0.0,87,0.00,,,0.00,WUHU216HW,2013-01-27 13:23:00,
2013-01-27 06:28:00,28.3,25.2,29.77,North,0,0.0,0.0,88,0.00,,,0.00,WUHU216HW,2013-01-27 13:28:00,
2013-01-27 06:33:00,28.4,25.4,29.77,North,0,0.0,0.0,88,0.00,,,0.00,WUHU216HW,2013-01-27 13:33:00,
2013-01-27 06:38:00,28.4,25.4,29.77,North,0,0.0,0.0,88,0.00,,,0.00,WUHU216HW,2013-01-27 13:38:00,
2013-01-27 06:43:00,28.4,25.4,29.77,North,0,0.0,0.0,88,0.00,,,0.00,WUHU216HW,2013-01-27 13:43:00,
2013-01-27 06:48:00,28.1,25.0,29.77,North,0,0.0,0.0,88,0.00,,,0.00,WUHU216HW,2013-01-27 13:48:00,
2013-01-27 06:53:00,28.1,25.0,29.78,North,0,0.0,0.0,88,0.00,,,0.00,WUHU216HW,2013-01-27 13:53:00,
2013-01-27 06:58:00,27.9,24.9,29.78,North,0,0.0,0.0,88,0.00,,,0.00,WUHU216HW,2013-01-27 13:58:00,
2013-01-27 07:03:00,28.1,25.0,29.78,North,0,0.0,0.0,88,0.00,,,0.00,WUHU216HW,2013-01-27 14:03:00,
2013-01-27 07:09:00,28.1,25.0,29.78,North,0,0.0,0.0,88,0.00,,,0.00,WUHU216HW,2013-01-27 14:09:00,
2013-01-27 07:14:00,27.9,24.9,29.78,North,0,0.0,0.0,88,0.00,,,0.00,WUHU216HW,2013-01-27 14:14:00,
2013-01-27 07:19:00,27.7,24.7,29.78,North,0,0.0,0.0,88,0.00,,,0.00,WUHU216HW,2013-01-27 14:19:00,
2013-01-27 07:24:00,28.1,25.3,29.79,North,0,0.0,0.0,89,0.00,,,0.00,WUHU216HW,2013-01-27 14:24:00,
2013-01-27 07:29:00,28.1,25.3,29.79,North,0,0.0,0.0,89,0.00,,,0.00,WUHU216HW,2013-01-27 14:29:00,
2013-01-27 07:34:00,28.1,25.3,29.79,North,0,0.0,0.0,89,0.00,,,0.00,WUHU216HW,2013-01-27 14:34:00,
2013-01-27 07:39:00,28.1,25.3,29.79,North,0,0.0,0.0,89,0.00,,,0.00,WUHU216HW,2013-01-27 14:39:00,
2013-01-27 07:44:00,28.1,25.3,29.79,North,0,0.0,0.0,89,0.00,,,0.00,WUHU216HW,2013-01-27 14:44:00,
2013-01-27 07:49:00,28.1,25.3,29.79,North,0,0.0,0.0,89,0.00,,,0.00,WUHU216HW,2013-01-27 14:49:00,
2013-01-27 07:54:00,28.3,25.5,29.79,North,0,0.0,0.0,89,0.00,,,0.00,WUHU216HW,2013-01-27 14:54:00,
2013-01-27 07:59:00,28.8,26.0,29.79,North,0,0.0,0.0,89,0.00,,,0.00,WUHU216HW,2013-01-27 14:59:00,
2013-01-27 08:04:00,29.9,27.6,29.79,North,0,0.0,0.0,91,0.00,,,0.00,WUHU216HW,2013-01-27 15:04:00,
2013-01-27 08:09:00,30.1,27.8,29.80,North,0,0.0,0.0,91,0.00,,,0.00,WUHU216HW,2013-01-27 15:09:00,
2013-01-27 08:14:00,30.6,28.4,29.80,North,0,0.0,0.0,91,0.00,,,0.00,WUHU216HW,2013-01-27 15:14:00,
2013-01-27 08:19:00,30.8,28.5,29.80,North,0,0.0,0.0,91,0.00,,,0.00,WUHU216HW,2013-01-27 15:19:00,
2013-01-27 08:24:00,31.1,28.9,29.79,North,0,0.0,0.0,91,0.00,,,0.00,WUHU216HW,2013-01-27 15:24:00,
2013-01-27 08:29:00,31.7,29.7,29.80,North,0,0.0,0.0,92,0.00,,,0.00,WUHU216HW,2013-01-27 15:29:00,
2013-01-27 08:34:00,32.8,30.7,29.80,North,0,0.0,0.0,92,0.00,,,0.00,WUHU216HW,2013-01-27 15:34:00,
2013-01-27 08:39:00,34.2,32.6,29.80,North,0,0.0,0.0,94,0.00,,,0.00,WUHU216HW,2013-01-27 15:39:00,
2013-01-27 08:44:00,35.5,33.6,29.80,North,0,0.0,0.0,93,0.00,,,0.00,WUHU216HW,2013-01-27 15:44:00,
2013-01-27 08:49:00,36.2,34.3,29.80,North,0,0.0,0.0,93,0.00,,,0.00,WUHU216HW,2013-01-27 15:49:00,
2013-01-27 08:54:00,37.1,34.1,29.80,North,0,0.0,0.0,89,0.00,,,0.00,WUHU216HW,2013-01-27 15:54:00,
2013-01-27 08:59:00,38.2,34.6,29.80,North,0,0.0,0.0,87,0.00,,,0.00,WUHU216HW,2013-01-27 15:59:00,
2013-01-27 09:04:00,39.6,36.6,29.80,North,0,0.0,0.0,89,0.00,,,0.00,WUHU216HW,2013-01-27 16:04:00,
2013-01-27 09:09:00,41.4,37.8,29.80,North,0,0.0,0.0,87,0.00,,,0.00,WUHU216HW,2013-01-27 16:09:00,
2013-01-27 09:14:00,42.7,38.2,29.80,North,0,0.0,0.0,84,0.00,,,0.00,WUHU216HW,2013-01-27 16:14:00,
2013-01-27 09:19:00,44.3,39.4,29.80,North,0,0.0,0.0,83,0.00,,,0.00,WUHU216HW,2013-01-27 16:19:00,
2013-01-27 09:24:00,46.3,37.5,29.80,North,0,0.0,0.0,71,0.00,,,0.00,WUHU216HW,2013-01-27 16:24:00,
2013-01-27 09:29:00,47.5,38.9,29.80,North,0,0.0,0.0,72,0.00,,,0.00,WUHU216HW,2013-01-27 16:29:00,
2013-01-27 09:34:00,47.9,39.2,29.80,North,0,0.0,0.0,72,0.00,,,0.00,WUHU216HW,2013-01-27 16:34:00,
2013-01-27 09:39:00,48.8,39.1,29.80,North,0,0.0,0.0,69,0.02,,,0.00,WUHU216HW,2013-01-27 16:39:00,
2013-01-27 09:44:00,49.1,39.4,29.80,North,0,0.0,0.0,69,0.02,,,0.02,WUHU216HW,2013-01-27 16:44:00,
2013-01-27 09:49:00,50.6,39.6,29.80,North,0,0.0,0.0,66,0.02,,,0.02,WUHU216HW,2013-01-27 16:49:00,
2013-01-27 09:54:00,50.9,38.3,29.80,North,0,0.0,0.0,62,0.02,,,0.02,WUHU216HW,2013-01-27 16:54:00,
2013-01-27 09:59:00,50.9,38.0,29.80,North,0,0.0,0.0,61,0.02,,,0.02,WUHU216HW,2013-01-27 16:59:00,
2013-01-27 10:04:00,51.8,38.8,29.80,North,0,0.0,0.0,61,0.02,,,0.02,WUHU216HW,2013-01-27 17:04:00,
2013-01-27 10:09:00,52.0,38.5,29.80,North,0,0.0,0.0,60,0.02,,,0.02,WUHU216HW,2013-01-27 17:09:00,
2013-01-27 10:14:00,52.2,37.4,29.80,North,0,0.0,0.0,57,0.02,,,0.02,WUHU216HW,2013-01-27 17:14:00,
2013-01-27 10:19:00,51.8,37.9,29.80,North,0,0.0,0.0,59,0.02,,,0.02,WUHU216HW,2013-01-27 17:19:00,
2013-01-27 10:24:00,52.2,37.4,29.80,North,0,0.0,0.0,57,0.02,,,0.02,WUHU216HW,2013-01-27 17:24:00,
2013-01-27 10:29:00,52.9,37.6,29.80,North,0,0.0,0.0,56,0.02,,,0.02,WUHU216HW,2013-01-27 17:29:00,
2013-01-27 10:34:00,54.2,37.8,29.80,North,0,0.0,0.0,54,0.02,,,0.02,WUHU216HW,2013-01-27 17:34:00,
2013-01-27 10:39:00,54.5,37.7,29.80,North,0,0.0,0.0,53,0.00,,,0.02,WUHU216HW,2013-01-27 17:39:00,
2013-01-27 10:44:00,53.6,36.9,29.80,North,0,0.0,0.0,53,0.00,,,0.02,WUHU216HW,2013-01-27 17:44:00,
2013-01-27 10:49:00,54.0,38.2,29.80,North,0,0.0,0.0,55,0.00,,,0.02,WUHU216HW,2013-01-27 17:49:00,
2013-01-27 10:54:00,54.7,37.8,29.80,North,0,0.0,0.0,53,0.00,,,0.02,WUHU216HW,2013-01-27 17:54:00,
2013-01-27 10:59:00,55.4,38.0,29.80,North,0,0.0,0.0,52,0.00,,,0.02,WUHU216HW,2013-01-27 17:59:00,
2013-01-27 11:04:00,56.0,38.1,29.80,North,0,0.0,0.0,51,0.00,,,0.02,WUHU216HW,2013-01-27 18:04:00,
2013-01-27 11:09:00,55.8,37.9,29.80,North,0,0.0,0.0,51,0.00,,,0.02,WUHU216HW,2013-01-27 18:09:00,
2013-01-27 11:14:00,56.0,38.5,29.80,North,0,0.0,0.0,52,0.00,,,0.02,WUHU216HW,2013-01-27 18:14:00,
2013-01-27 11:19:00,56.0,38.1,29.80,North,0,0.0,0.0,51,0.00,,,0.02,WUHU216HW,2013-01-27 18:19:00,
2013-01-27 11:24:00,55.3,36.9,29.80,North,0,0.0,0.0,50,0.00,,,0.02,WUHU216HW,2013-01-27 18:24:00,
2013-01-27 11:29:00,54.7,36.5,29.80,North,0,0.0,0.0,50,0.00,,,0.02,WUHU216HW,2013-01-27 18:29:00,
2013-01-27 11:34:00,53.8,36.1,29.79,North,0,0.0,0.0,51,0.00,,,0.02,WUHU216HW,2013-01-27 18:34:00,
2013-01-27 11:39:00,54.0,36.7,29.79,North,0,0.0,0.0,52,0.00,,,0.02,WUHU216HW,2013-01-27 18:39:00,
2013-01-27 11:44:00,54.4,37.1,29.79,North,0,0.0,0.0,52,0.00,,,0.02,WUHU216HW,2013-01-27 18:44:00,
2013-01-27 11:49:00,54.9,37.1,29.79,North,0,0.0,0.0,51,0.00,,,0.02,WUHU216HW,2013-01-27 18:49:00,
2013-01-27 11:54:00,54.9,36.6,29.79,North,0,0.0,0.0,50,0.00,,,0.02,WUHU216HW,2013-01-27 18:54:00,
2013-01-27 11:59:00,55.4,36.6,29.79,North,0,0.0,0.0,49,0.00,,,0.02,WUHU216HW,2013-01-27 18:59:00,
2013-01-27 12:04:00,55.6,36.7,29.78,North,0,0.0,0.0,49,0.00,,,0.02,WUHU216HW,2013-01-27 19:04:00,
2013-01-27 12:09:00,55.8,35.7,29.78,North,0,0.0,0.0,47,0.00,,,0.02,WUHU216HW,2013-01-27 19:09:00,
2013-01-27 12:14:00,56.0,35.4,29.78,North,0,0.0,0.0,46,0.00,,,0.02,WUHU216HW,2013-01-27 19:14:00,
2013-01-27 12:19:00,56.2,35.6,29.77,North,0,0.0,0.0,46,0.00,,,0.02,WUHU216HW,2013-01-27 19:19:00,
2013-01-27 12:24:00,56.3,35.7,29.77,North,0,0.0,0.0,46,0.00,,,0.02,WUHU216HW,2013-01-27 19:24:00,
2013-01-27 12:29:00,56.5,35.9,29.77,North,0,0.0,0.0,46,0.00,,,0.02,WUHU216HW,2013-01-27 19:29:00,
2013-01-27 12:34:00,56.7,35.5,29.77,North,0,0.0,0.0,45,0.00,,,0.02,WUHU216HW,2013-01-27 19:34:00,
2013-01-27 12:39:00,56.5,35.9,29.77,North,0,0.0,0.0,46,0.00,,,0.02,WUHU216HW,2013-01-27 19:39:00,
2013-01-27 12:44:00,56.3,35.1,29.77,North,0,0.0,0.0,45,0.00,,,0.02,WUHU216HW,2013-01-27 19:44:00,
2013-01-27 12:49:00,56.5,34.7,29.77,North,0,0.0,0.0,44,0.00,,,0.02,WUHU216HW,2013-01-27 19:49:00,
2013-01-27 12:54:00,57.2,34.8,29.77,North,0,0.0,0.0,43,0.00,,,0.02,WUHU216HW,2013-01-27 19:54:00,
2013-01-27 12:59:00,57.4,35.0,29.77,North,0,0.0,0.0,43,0.00,,,0.02,WUHU216HW,2013-01-27 19:59:00,
2013-01-27 13:04:00,57.6,35.7,29.76,North,0,0.0,0.0,44,0.00,,,0.02,WUHU216HW,2013-01-27 20:04:00,
2013-01-27 13:09:00,57.6,35.7,29.76,North,0,0.0,0.0,44,0.00,,,0.02,WUHU216HW,2013-01-27 20:09:00,
2013-01-27 13:14:00,58.0,36.1,29.76,North,0,0.0,0.0,44,0.00,,,0.02,WUHU216HW,2013-01-27 20:14:00,
2013-01-27 13:19:00,58.3,35.8,29.76,North,0,0.0,0.0,43,0.00,,,0.02,WUHU216HW,2013-01-27 20:19:00,
2013-01-27 13:24:00,58.5,36.0,29.75,North,0,0.0,0.0,43,0.00,,,0.02,WUHU216HW,2013-01-27 20:24:00,
2013-01-27 13:29:00,58.7,36.2,29.76,North,0,0.0,0.0,43,0.00,,,0.02,WUHU216HW,2013-01-27 20:29:00,
2013-01-27 13:34:00,58.5,35.4,29.76,North,0,0.0,0.0,42,0.00,,,0.02,WUHU216HW,2013-01-27 20:34:00,
2013-01-27 13:39:00,58.1,35.6,29.75,North,0,0.0,0.0,43,0.00,,,0.02,WUHU216HW,2013-01-27 20:39:00,
2013-01-27 13:44:00,58.5,35.4,29.75,North,0,0.0,0.0,42,0.00,,,0.02,WUHU216HW,2013-01-27 20:44:00,
2013-01-27 13:49:00,58.7,35.0,29.75,North,0,0.0,0.0,41,0.00,,,0.02,WUHU216HW,2013-01-27 20:49:00,
2013-01-27 13:54:00,58.7,35.0,29.75,North,0,0.0,0.0,41,0.00,,,0.02,WUHU216HW,2013-01-27 20:54:00,
2013-01-27 13:59:00,58.9,35.2,29.75,North,0,0.0,0.0,41,0.00,,,0.02,WUHU216HW,2013-01-27 20:59:00,
2013-01-27 14:04:00,59.0,34.7,29.75,North,0,0.0,0.0,40,0.00,,,0.02,WUHU216HW,2013-01-27 21:04:00,
2013-01-27 14:09:00,59.2,35.5,29.74,North,0,0.0,0.0,41,0.00,,,0.02,WUHU216HW,2013-01-27 21:09:00,
2013-01-27 14:14:00,59.0,34.7,29.74,North,0,0.0,0.0,40,0.00,,,0.02,WUHU216HW,2013-01-27 21:14:00,
2013-01-27 14:19:00,58.9,34.6,29.74,North,0,0.0,0.0,40,0.00,,,0.02,WUHU216HW,2013-01-27 21:19:00,
2013-01-27 14:24:00,58.9,34.6,29.75,North,0,0.0,0.0,40,0.00,,,0.02,WUHU216HW,2013-01-27 21:24:00,
2013-01-27 14:29:00,58.5,34.3,29.75,North,0,0.0,0.0,40,0.00,,,0.02,WUHU216HW,2013-01-27 21:29:00,
2013-01-27 14:34:00,58.3,34.1,29.75,North,0,0.0,0.0,40,0.00,,,0.02,WUHU216HW,2013-01-27 21:34:00,
2013-01-27 14:39:00,58.3,34.1,29.75,North,0,0.0,0.0,40,0.00,,,0.02,WUHU216HW,2013-01-27 21:39:00,
2013-01-27 14:44:00,58.3,34.1,29.75,North,0,0.0,0.0,40,0.00,,,0.02,WUHU216HW,2013-01-27 21:44:00,
2013-01-27 14:49:00,58.3,34.1,29.75,North,0,0.0,0.0,40,0.00,,,0.02,WUHU216HW,2013-01-27 21:49:00,
2013-01-27 14:54:00,58.5,33.6,29.75,North,0,0.0,0.0,39,0.00,,,0.02,WUHU216HW,2013-01-27 21:54:00,
2013-01-27 14:59:00,58.5,33.6,29.75,North,0,0.0,0.0,39,0.00,,,0.02,WUHU216HW,2013-01-27 21:59:00,
2013-01-27 15:04:00,58.1,33.2,29.75,North,0,0.0,0.0,39,0.00,,,0.02,WUHU216HW,2013-01-27 22:04:00,
2013-01-27 15:09:00,58.1,33.9,29.75,North,0,0.0,0.0,40,0.00,,,0.02,WUHU216HW,2013-01-27 22:09:00,
2013-01-27 15:14:00,58.1,33.9,29.75,North,0,0.0,0.0,40,0.00,,,0.02,WUHU216HW,2013-01-27 22:14:00,
2013-01-27 15:19:00,58.3,34.1,29.75,North,0,0.0,0.0,40,0.00,,,0.02,WUHU216HW,2013-01-27 22:19:00,
2013-01-27 15:24:00,58.3,33.4,29.74,North,0,0.0,0.0,39,0.00,,,0.02,WUHU216HW,2013-01-27 22:24:00,
2013-01-27 15:29:00,58.1,33.9,29.74,North,0,0.0,0.0,40,0.00,,,0.02,WUHU216HW,2013-01-27 22:29:00,
2013-01-27 15:34:00,58.0,33.0,29.74,North,0,0.0,0.0,39,0.00,,,0.02,WUHU216HW,2013-01-27 22:34:00,
2013-01-27 15:39:00,57.8,33.0,29.74,North,0,0.0,0.0,39,0.00,,,0.02,WUHU216HW,2013-01-27 22:39:00,
2013-01-27 15:44:00,57.8,33.0,29.74,North,0,0.0,0.0,39,0.00,,,0.02,WUHU216HW,2013-01-27 22:44:00,
2013-01-27 15:49:00,57.6,32.8,29.74,North,0,0.0,0.0,39,0.00,,,0.02,WUHU216HW,2013-01-27 22:49:00,
2013-01-27 15:54:00,57.6,33.5,29.74,North,0,0.0,0.0,40,0.00,,,0.02,WUHU216HW,2013-01-27 22:54:00,
2013-01-27 15:59:00,57.6,33.5,29.74,North,0,0.0,0.0,40,0.00,,,0.02,WUHU216HW,2013-01-27 22:59:00,
2013-01-27 16:04:00,57.4,32.6,29.75,North,0,0.0,0.0,39,0.00,,,0.02,WUHU216HW,2013-01-27 23:04:00,
2013-01-27 16:09:00,56.5,32.5,29.75,North,0,0.0,0.0,40,0.00,,,0.02,WUHU216HW,2013-01-27 23:09:00,
2013-01-27 16:14:00,55.8,31.9,29.74,North,0,0.0,0.0,40,0.00,,,0.02,WUHU216HW,2013-01-27 23:14:00,
2013-01-27 16:19:00,55.4,31.5,29.74,North,0,0.0,0.0,40,0.00,,,0.02,WUHU216HW,2013-01-27 23:19:00,
2013-01-27 16:24:00,55.4,32.0,29.74,North,0,0.0,0.0,41,0.00,,,0.02,WUHU216HW,2013-01-27 23:24:00,
2013-01-27 16:29:00,55.6,32.2,29.74,North,0,0.0,0.0,41,0.00,,,0.02,WUHU216HW,2013-01-27 23:29:00,
2013-01-27 16:34:00,55.3,31.9,29.75,North,0,0.0,0.0,41,0.00,,,0.02,WUHU216HW,2013-01-27 23:34:00,
2013-01-27 16:39:00,55.1,31.8,29.75,North,0,0.0,0.0,41,0.00,,,0.02,WUHU216HW,2013-01-27 23:39:00,
2013-01-27 16:44:00,54.5,31.8,29.75,North,0,0.0,0.0,42,0.00,,,0.02,WUHU216HW,2013-01-27 23:44:00,
2013-01-27 16:49:00,54.2,31.5,29.75,North,0,0.0,0.0,42,0.00,,,0.02,WUHU216HW,2013-01-27 23:49:00,
2013-01-27 16:54:00,53.6,31.6,29.75,North,0,0.0,0.0,43,0.00,,,0.02,WUHU216HW,2013-01-27 23:54:00,
2013-01-27 16:59:00,53.3,31.8,29.75,North,0,0.0,0.0,44,0.00,,,0.02,WUHU216HW,2013-01-27 23:59:00,
2013-01-27 17:04:00,52.9,31.5,29.75,North,0,0.0,0.0,44,0.00,,,0.02,WUHU216HW,2013-01-28 00:04:00,
2013-01-27 17:09:00,52.6,31.7,29.75,North,0,0.0,0.0,45,0.00,,,0.02,WUHU216HW,2013-01-28 00:09:00,
2013-01-27 17:14:00,52.2,31.4,29.75,North,0,0.0,0.0,45,0.00,,,0.02,WUHU216HW,2013-01-28 00:14:00,
2013-01-27 17:19:00,51.7,30.9,29.75,North,0,0.0,0.0,45,0.00,,,0.02,WUHU216HW,2013-01-28 00:19:00,
2013-01-27 17:24:00,51.1,31.0,29.75,North,0,0.0,0.0,46,0.00,,,0.02,WUHU216HW,2013-01-28 00:24:00,
2013-01-27 17:29:00,50.8,31.2,29.75,North,0,0.0,0.0,47,0.00,,,0.02,WUHU216HW,2013-01-28 00:29:00,
2013-01-27 17:34:00,50.4,30.9,29.75,North,0,0.0,0.0,47,0.00,,,0.02,WUHU216HW,2013-01-28 00:34:00,
2013-01-27 17:39:00,50.0,31.2,29.75,North,0,0.0,0.0,48,0.00,,,0.02,WUHU216HW,2013-01-28 00:39:00,
2013-01-27 17:44:00,49.5,31.2,29.75,North,0,0.0,0.0,49,0.00,,,0.02,WUHU216HW,2013-01-28 00:44:00,
2013-01-27 17:49:00,49.0,31.1,29.76,North,0,0.0,0.0,50,0.00,,,0.02,WUHU216HW,2013-01-28 00:49:00,
2013-01-27 17:54:00,48.6,30.8,29.76,North,0,0.0,0.0,50,0.00,,,0.02,WUHU216HW,2013-01-28 00:54:00,
2013-01-27 17:59:00,48.2,30.9,29.76,North,0,0.0,0.0,51,0.00,,,0.02,WUHU216HW,2013-01-28 00:59:00,
2013-01-27 18:04:00,47.9,30.6,29.76,North,0,0.0,0.0,51,0.00,,,0.02,WUHU216HW,2013-01-28 01:04:00,
2013-01-27 18:09:00,47.5,30.3,29.76,North,0,0.0,0.0,51,0.00,,,0.02,WUHU216HW,2013-01-28 01:09:00,
2013-01-27 18:14:00,47.2,30.8,29.76,North,0,0.0,0.0,53,0.00,,,0.02,WUHU216HW,2013-01-28 01:14:00,
2013-01-27 18:19:00,46.6,30.3,29.76,North,0,0.0,0.0,53,0.00,,,0.02,WUHU216HW,2013-01-28 01:19:00,
2013-01-27 18:24:00,46.3,30.4,29.76,North,0,0.0,0.0,54,0.00,,,0.02,WUHU216HW,2013-01-28 01:24:00,
2013-01-27 18:29:00,46.3,30.9,29.76,North,0,0.0,0.0,55,0.00,,,0.02,WUHU216HW,2013-01-28 01:29:00,
2013-01-27 18:34:00,45.9,30.2,29.77,North,0,0.0,0.0,54,0.00,,,0.02,WUHU216HW,2013-01-28 01:34:00,
2013-01-27 18:39:00,45.4,30.5,29.77,North,0,0.0,0.0,56,0.00,,,0.02,WUHU216HW,2013-01-28 01:39:00,
2013-01-27 18:44:00,44.8,29.6,29.77,North,0,0.0,0.0,55,0.00,,,0.02,WUHU216HW,2013-01-28 01:44:00,
2013-01-27 18:49:00,44.3,29.5,29.77,North,0,0.0,0.0,56,0.00,,,0.02,WUHU216HW,2013-01-28 01:49:00,
2013-01-27 18:54:00,43.6,29.7,29.77,North,0,0.0,0.0,58,0.00,,,0.02,WUHU216HW,2013-01-28 01:54:00,
2013-01-27 18:59:00,43.0,29.2,29.77,North,0,0.0,0.0,58,0.00,,,0.02,WUHU216HW,2013-01-28 01:59:00,
2013-01-27 19:04:00,42.7,28.9,29.77,North,0,0.0,0.0,58,0.00,,,0.02,WUHU216HW,2013-01-28 02:04:00,
2013-01-27 19:09:00,42.1,28.8,29.78,North,0,0.0,0.0,59,0.00,,,0.02,WUHU216HW,2013-01-28 02:09:00,
2013-01-27 19:14:00,41.8,29.3,29.78,North,0,0.0,0.0,61,0.00,,,0.02,WUHU216HW,2013-01-28 02:14:00,
2013-01-27 19:19:00,41.4,29.0,29.78,North,0,0.0,0.0,61,0.00,,,0.02,WUHU216HW,2013-01-28 02:19:00,
2013-01-27 19:24:00,41.0,28.3,29.78,North,0,0.0,0.0,60,0.00,,,0.02,WUHU216HW,2013-01-28 02:24:00,
2013-01-27 19:29:00,40.7,27.9,29.78,North,0,0.0,0.0,60,0.00,,,0.02,WUHU216HW,2013-01-28 02:29:00,
2013-01-27 19:34:00,40.1,27.7,29.78,North,0,0.0,0.0,61,0.00,,,0.02,WUHU216HW,2013-01-28 02:34:00,
2013-01-27 19:39:00,40.0,28.7,29.78,North,0,0.0,0.0,64,0.00,,,0.02,WUHU216HW,2013-01-28 02:39:00,
2013-01-27 19:44:00,40.0,29.1,29.78,North,0,0.0,0.0,65,0.00,,,0.02,WUHU216HW,2013-01-28 02:44:00,
2013-01-27 19:49:00,40.0,29.1,29.78,North,0,0.0,0.0,65,0.00,,,0.02,WUHU216HW,2013-01-28 02:49:00,
2013-01-27 19:54:00,39.8,28.2,29.78,North,0,0.0,0.0,63,0.00,,,0.02,WUHU216HW,2013-01-28 02:54:00,
2013-01-27 19:59:00,39.6,28.0,29.78,North,0,0.0,0.0,63,0.00,,,0.02,WUHU216HW,2013-01-28 02:59:00,
2013-01-27 20:04:00,39.2,27.6,29.78,North,0,0.0,0.0,63,0.00,,,0.02,WUHU216HW,2013-01-28 03:04:00,
2013-01-27 20:09:00,39.1,27.5,29.78,North,0,0.0,0.0,63,0.00,,,0.02,WUHU216HW,2013-01-28 03:09:00,
2013-01-27 20:14:00,38.7,27.1,29.78,North,0,0.0,0.0,63,0.00,,,0.02,WUHU216HW,2013-01-28 03:14:00,
2013-01-27 20:19:00,38.5,26.9,29.78,North,0,0.0,0.0,63,0.00,,,0.02,WUHU216HW,2013-01-28 03:19:00,
2013-01-27 20:24:00,38.2,26.7,29.77,North,0,0.0,0.0,63,0.00,,,0.02,WUHU216HW,2013-01-28 03:24:00,
2013-01-27 20:29:00,37.8,26.3,29.77,North,0,0.0,0.0,63,0.00,,,0.02,WUHU216HW,2013-01-28 03:29:00,
2013-01-27 20:34:00,37.8,26.3,29.77,North,0,0.0,0.0,63,0.00,,,0.02,WUHU216HW,2013-01-28 03:34:00,
2013-01-27 20:40:00,37.8,26.3,29.77,North,0,0.0,0.0,63,0.00,,,0.02,WUHU216HW,2013-01-28 03:40:00,
2013-01-27 20:45:00,37.6,25.7,29.77,North,0,0.0,0.0,62,0.00,,,0.02,WUHU216HW,2013-01-28 03:45:00,
2013-01-27 20:50:00,37.4,24.8,29.77,North,0,0.0,0.0,60,0.00,,,0.02,WUHU216HW,2013-01-28 03:50:00,
2013-01-27 20:55:00,37.3,24.7,29.77,North,0,0.0,0.0,60,0.00,,,0.02,WUHU216HW,2013-01-28 03:55:00,
2013-01-27 21:00:00,37.1,24.1,29.77,North,0,0.0,0.0,59,0.00,,,0.02,WUHU216HW,2013-01-28 04:00:00,
2013-01-27 21:05:00,37.1,24.1,29.77,North,0,0.0,0.0,59,0.00,,,0.02,WUHU216HW,2013-01-28 04:05:00,
2013-01-27 21:10:00,36.7,23.8,29.78,North,0,0.0,0.0,59,0.00,,,0.02,WUHU216HW,2013-01-28 04:10:00,
2013-01-27 21:15:00,36.7,23.8,29.78,North,0,0.0,0.0,59,0.00,,,0.02,WUHU216HW,2013-01-28 04:15:00,
2013-01-27 21:20:00,36.4,23.9,29.77,North,0,0.0,0.0,60,0.00,,,0.02,WUHU216HW,2013-01-28 04:20:00,
2013-01-27 21:25:00,35.6,23.2,29.78,North,0,0.0,0.0,60,0.00,,,0.02,WUHU216HW,2013-01-28 04:25:00,
2013-01-27 21:30:00,35.5,23.8,29.77,North,0,0.0,0.0,62,0.00,,,0.02,WUHU216HW,2013-01-28 04:30:00,
2013-01-27 21:35:00,35.3,23.6,29.77,North,0,0.0,0.0,62,0.00,,,0.02,WUHU216HW,2013-01-28 04:35:00,
2013-01-27 21:40:00,35.1,23.4,29.77,North,0,0.0,0.0,62,0.00,,,0.02,WUHU216HW,2013-01-28 04:40:00,
2013-01-27 21:45:00,34.9,23.2,29.77,North,0,0.0,0.0,62,0.00,,,0.02,WUHU216HW,2013-01-28 04:45:00,
2013-01-27 21:50:00,34.4,23.0,29.77,North,0,0.0,0.0,63,0.00,,,0.02,WUHU216HW,2013-01-28 04:50:00,
2013-01-27 21:55:00,34.0,23.4,29.77,North,0,0.0,0.0,65,0.00,,,0.02,WUHU216HW,2013-01-28 04:55:00,
2013-01-27 22:00:00,33.7,23.0,29.77,North,0,0.0,0.0,65,0.00,,,0.02,WUHU216HW,2013-01-28 05:00:00,
2013-01-27 22:05:00,33.3,22.8,29.77,North,0,0.0,0.0,65,0.00,,,0.02,WUHU216HW,2013-01-28 05:05:00,
2013-01-27 22:10:00,33.3,24.2,29.77,North,0,0.0,0.0,69,0.00,,,0.02,WUHU216HW,2013-01-28 05:10:00,
2013-01-27 22:15:00,34.0,25.8,29.77,North,0,0.0,0.0,72,0.00,,,0.02,WUHU216HW,2013-01-28 05:15:00,
2013-01-27 22:20:00,35.3,26.8,29.77,North,0,0.0,0.0,71,0.00,,,0.02,WUHU216HW,2013-01-28 05:20:00,
2013-01-27 22:25:00,36.0,26.8,29.77,North,0,0.0,0.0,69,0.00,,,0.02,WUHU216HW,2013-01-28 05:25:00,
2013-01-27 22:30:00,36.4,26.5,29.76,North,0,0.0,0.0,67,0.00,,,0.02,WUHU216HW,2013-01-28 05:30:00,
2013-01-27 22:35:00,36.4,26.5,29.77,North,0,0.0,0.0,67,0.00,,,0.02,WUHU216HW,2013-01-28 05:35:00,
2013-01-27 22:40:00,36.0,25.8,29.76,North,0,0.0,0.0,66,0.00,,,0.02,WUHU216HW,2013-01-28 05:40:00,
2013-01-27 22:45:00,36.0,25.4,29.76,North,0,0.0,0.0,65,0.00,,,0.02,WUHU216HW,2013-01-28 05:45:00,
2013-01-27 22:50:00,35.3,24.3,29.76,North,0,0.0,0.0,64,0.00,,,0.02,WUHU216HW,2013-01-28 05:50:00,
2013-01-27 22:55:00,34.6,23.9,29.76,North,0,0.0,0.0,65,0.00,,,0.02,WUHU216HW,2013-01-28 05:55:00,
2013-01-27 23:01:00,34.0,23.4,29.76,North,0,0.0,0.0,65,0.00,,,0.02,WUHU216HW,2013-01-28 06:01:00,
2013-01-27 23:06:00,33.5,23.2,29.76,North,0,0.0,0.0,66,0.00,,,0.02,WUHU216HW,2013-01-28 06:06:00,
2013-01-27 23:11:00,32.9,22.4,29.76,North,0,0.0,0.0,65,0.00,,,0.02,WUHU216HW,2013-01-28 06:11:00,
2013-01-27 23:16:00,32.4,22.3,29.76,North,0,0.0,0.0,66,0.00,,,0.02,WUHU216HW,2013-01-28 06:16:00,
2013-01-27 23:21:00,32.0,22.3,29.76,North,0,0.0,0.0,67,0.00,,,0.02,WUHU216HW,2013-01-28 06:21:00,
2013-01-27 23:26:00,31.9,22.5,29.76,North,0,0.0,0.0,68,0.00,,,0.02,WUHU216HW,2013-01-28 06:26:00,
2013-01-27 23:31:00,31.9,22.9,29.76,North,0,0.0,0.0,69,0.00,,,0.02,WUHU216HW,2013-01-28 06:31:00,
2013-01-27 23:36:00,31.7,22.3,29.76,North,0,0.0,0.0,68,0.00,,,0.02,WUHU216HW,2013-01-28 06:36:00,
2013-01-27 23:41:00,31.5,22.1,29.75,North,0,0.0,0.0,68,0.00,,,0.02,WUHU216HW,2013-01-28 06:41:00,
2013-01-27 23:46:00,31.3,21.6,29.75,North,0,0.0,0.0,67,0.00,,,0.02,WUHU216HW,2013-01-28 06:46:00,
2013-01-27 23:51:00,31.1,21.1,29.75,North,0,0.0,0.0,66,0.00,,,0.02,WUHU216HW,2013-01-28 06:51:00,
2013-01-27 23:56:00,30.6,20.5,29.76,North,0,0.0,0.0,66,0.00,,,0.02,WUHU216HW,2013-01-28 06:56:00,